Location: Saint-Pons-de-Thomières
(43.4882°N, 2.7600°E)
Time: 01:30:21
(UTC+01:00)

ISS - Visible Passes

Search period start: 28 November 2021 00:00
Search period end: 08 December 2021 00:00
Orbit: 417 x 423 km, 51.6° (Epoch: 27 November)

Date Brightness Start Highest point End Pass type
(mag) Time Alt. Az. Time Alt. Az. Time Alt. Az.
28 Nov -2.1 17:51:18 10° WNW 17:54:08 24° NNW 17:56:58 10° NE visible
28 Nov -1.3 19:29:02 10° NW 19:30:12 16° NNW 19:30:12 16° NNW visible
29 Nov -2.0 18:41:46 10° NW 18:44:23 20° N 18:44:54 20° NNE visible
30 Nov -1.9 17:54:23 10° NW 17:57:00 20° N 17:59:37 10° NE visible
30 Nov -1.3 19:31:31 10° NW 19:32:37 17° NNW 19:32:37 17° NNW visible
01 Dec -2.4 18:44:21 10° NW 18:47:12 24° NNE 18:47:22 24° NNE visible
02 Dec -2.1 17:57:06 10° NW 17:59:49 22° N 18:02:11 12° ENE visible
02 Dec -1.5 19:33:49 10° NW 19:35:10 22° NW 19:35:10 22° NW visible
03 Dec -3.2 18:46:38 10° NW 18:49:52 39° NNE 18:50:04 38° NNE visible
04 Dec -2.7 17:59:28 10° NW 18:02:31 30° NNE 18:05:05 13° ENE visible
04 Dec -1.9 19:36:10 10° WNW 19:38:05 30° WNW 19:38:05 30° WNW visible
05 Dec -3.9 18:48:53 10° WNW 18:52:17 87° NE 18:53:16 43° ESE visible
06 Dec -3.6 18:01:38 10° NW 18:04:59 56° NNE 18:08:20 10° ESE visible
06 Dec -1.4 19:38:56 10° W 19:41:35 21° SW 19:41:43 21° SW visible
07 Dec -2.1 18:51:19 10° WNW 18:54:26 34° SW 18:57:30 10° SSE visible
